Regional Weather Roundup
Issued by NWS Cleveland, OH

Home | Current Version | Previous Version | Text Only | Print | Product List | Glossary Off
Versions: 1 2 3 4 5 6 7 8 9 10 11 12 13 14 15 16 17 18 19 20 21 22 23 24 25 26 27 28 29 30 31 32 33 34 35 36 37 38 39 40 41 42 43 44 45 46 47 48 49 50

000
ASUS41 KCLE 281510
RWRCLE
OHIO REGIONAL WEATHER ROUNDUP
NATIONAL WEATHER SERVICE CLEVELAND, OH
1000 AM EST SAT FEB 28 2015

NOTE: "FAIR" INDICATES FEW OR NO CLOUDS BELOW 12,000 FEET WITH NO
SIGNIFICANT WEATHER AND/OR OBSTRUCTIONS TO VISIBILITY.

OHZ001>008-015>018-024>027-034-035-043-044-281600-
   NORTHWEST OHIO

CITY           SKY/WX    TMP DP  RH WIND       PRES   REMARKS
DEFIANCE       SUNNY      9   0  67 CALM      30.77R
FINDLAY        SUNNY      8  -3  61 S5        30.75S WCI   0
TOLEDO EXPRESS SUNNY     10   1  67 S5        30.77R WCI   2
TOLEDO EXEC    SUNNY      7  -2  66 CALM      30.79R
LIMA           SUNNY     14  -1  51 SE7       30.73S WCI   4
$$

OHZ009>014-019>023-028>033-038-089-281600-
   NORTHEAST OHIO

CITY           SKY/WX    TMP DP  RH WIND       PRES   REMARKS
CLE-HOPKINS    PTSUNNY    7  -1  70 CALM      30.81R
CLE-LAKEFRONT  MOSUNNY   11   0  61 S7        30.79R WCI   0
CUY CO. ARPT   PTSUNNY   10   3  72 CALM      30.77S
LORAIN-ELYRIA  MOSUNNY    1  -4  79 CALM      30.78R
ASHTABULA      MOSUNNY    7  -2  66 S5        30.77S WCI  -2
AKRON-CANTON   MOSUNNY   12  -2  53 SE5       30.74R WCI   4
WOOSTER        MOSUNNY    8   0  69 CALM      30.75S HAZE
MANSFIELD      SUNNY     12  -1  56 E9        30.72R WCI   0
YOUNGSTOWN     PTSUNNY    9   1  70 SE5       30.75R WCI   1
$$

OHZ042-051>053-060>062-070>072-077>081-281600-
  SOUTHWEST OHIO

CITY           SKY/WX    TMP DP  RH WIND       PRES   REMARKS
CINC-COVINGTON PTSUNNY   17   2  51 E7        30.71S WCI   8
CINC-LUNKEN    PTSUNNY   18   2  49 NE5       30.77S WCI  11
HAMILTON       CLOUDY    17   1  49 E7        30.76S WCI   8
DAYTON         MOSUNNY   15   1  53 SE14      30.72S WCI   0
WRIGHT-PAT AFB CLOUDY    15  -1  48 E8        30.74S WCI   5
DAYTON GENERAL PTSUNNY   14  -1  51 E7        30.71S WCI   4
WILMINGTON     CLOUDY    11  -1  58 E8        30.71R WCI  -1
$$

OHZ036-037-039>041-045>050-054>059-063>069-073>076-082>088-281600-
  CENTRAL AND SOUTHEAST OHIO

CITY           SKY/WX    TMP DP  RH WIND       PRES   REMARKS
COLUMBUS       PTSUNNY   15  -1  49 E8        30.75S WCI   4
OSU AIRPORT    MOSUNNY   14  -1  51 E8        30.74S WCI   3
BOLTON FIELD   MOSUNNY   14   1  57 E5        30.75R WCI   6
RICKENBACK AFB SUNNY     12   1  59 E5        30.76S WCI   5
NEWARK         SUNNY     13   0  56 NE5       30.75S WCI   5
MARION         SUNNY     10  -3  55 SE8       30.75R WCI  -2
LANCASTER      MOSUNNY   12   2  64 CALM      30.75S
ZANESVILLE     SUNNY     14   1  56 CALM      30.75S
NEW PHILLY     SUNNY     11   4  73 CALM      30.78S
$$



USA.gov is the U.S. government's official web portal to all federal, state and local government web resources and services.